Regional Weather Roundup
Issued by NWS

Home | Current Version | Previous Version | Text Only | Print | Product List | Glossary On
Versions: 1 2 3 4 5 6 7 8 9 10 11 12 13 14 15 16 17 18 19 20 21 22 23 24 25 26 27 28 29 30 31 32 33 34 35 36 37 38 39 40 41 42 43 44 45 46 47 48 49 50
000
ASUS43 KLSX 190307
RWRMO

WEATHER SUMMARY FOR MISSOURI
NATIONAL WEATHER SERVICE SPRINGFIELD MO
1000 PM CDT SAT APR 18 2015

NOTE: "FAIR" INDICATES FEW OR NO CLOUDS BELOW 12,000 FEET WITH NO
       SIGNIFICANT WEATHER AND/OR OBSTRUCTIONS TO VISIBILITY.
       CURRENT SKY AND/OR WEATHER CONDITIONS ARE NOT AVAILABLE FOR
       CHILLICOTHE AND FARMINGTON.

MOZ001>031-035>038-043-044-053-054-190400-
...NORTHERN AND WESTERN MISSOURI...

CITY           SKY/WX    TMP DP  RH WIND       PRES   REMARKS
KANSAS CTY INT CLEAR     57  55  93 SE5       29.84S
KANSAS C DTWN  PTCLDY    61  57  87 E5        29.83S
LEE`S SUMMIT   PTCLDY    60  58  92 CALM      29.84S
ST JOSEPH      PTCLDY    57  55  93 SE7       29.83F
CHILLICOTHE      N/A     60  58  92 CALM      29.86R
KIRKSVILLE     CLOUDY    59  58  96 SE3       29.86F

$$
MOZ066>068-077>081-088>096-101>105-190400-
...SOUTHWEST MISSOURI...

CITY           SKY/WX    TMP DP  RH WIND       PRES   REMARKS
SPRINGFIELD    CLEAR     57  54  89 CALM      29.83S
JOPLIN         CLEAR     61  57  87 E5        29.82R

$$
MOZ032>034-039>042-045>050-055>058-069>072-190400-
...CENTRAL MISSOURI...

CITY           SKY/WX    TMP DP  RH WIND       PRES   REMARKS
COLUMBIA       CLOUDY    62  55  77 E7        29.86F
JEFFERSON CITY MOCLDY    65  57  75 E7        29.85F
ROLLA          MOCLDY    60  57  89 NE3       29.85S
SEDALIA        PTCLDY    59  57  93 E5        29.86F FOG
WHITEMAN AFB   CLOUDY    60  59  97 E5        29.83F
WARRENSBURG    CLOUDY    59  55  88 CALM      29.84F
OSAGE BEACH    CLEAR     59  55  88 CALM      29.85F

$$
MOZ051-052-059>065-190400-
...EAST CENTRAL MISSOURI...

CITY           SKY/WX    TMP DP  RH WIND       PRES   REMARKS
ST LOUIS INTL  MOCLDY    68  57  68 E6        29.87F
SPIRIT OF STL  MOCLDY    65  57  75 SE3       29.85S
ST CHARLES     MOCLDY    66  56  70 E7        29.85F

$$
MOZ072>076-082>087-097>100-106>115-190400-
...SOUTH CENTRAL AND SOUTHEAST MISSOURI...

CITY           SKY/WX    TMP DP  RH WIND       PRES   REMARKS
CAPE GIRARDEAU MOCLDY    65  60  84 CALM      29.85S
FARMINGTON     CLOUDY    66  55  68 SE3       29.90S
POPLAR BLUFF   CLOUDY    66  62  87 CALM      29.83S
WEST PLAINS    CLOUDY    65  55  70 SE3       29.86S

$$


USA.gov is the U.S. government's official web portal to all federal, state and local government web resources and services.